COSMOS 2251 DEB, 34270

Orbit data source: Space-Track

COSMOS 2251 DEB, 34270 is space debris in LEO originally from a launch on Wed, 16 Jun 1993 UTC launched from the Plesetsk Missile And Space Complex (PKMTR). The debris from Iridium 33, an American commercial communications satellite, has been tracked extensively since its accidental collision with the defunct Russian satellite Cosmos 2251 in 2009. This event, occurring at high speed in low Earth orbit (LEO), generated thousands of pieces of space debris, significantly increasing the risk of further collisions. The Iridium 33 debris cloud has impacted space traffic management and orbital debris mitigation strategies, making it a subject of ongoing study in space situational awareness.

Loading next visibility...
Identifier
34270, 1993-036LQ
Orbit
LEO
Country
Flag of CISCIS
Related business
Manufacturer
Unknown
Mission
Spacecraft
Bus & Motor
Unknown
Mass
Unknown
Launch date (UTC)
1993-06-16 (33 years ago)
Launch vehicle
Unknown
Launch site
Plesetsk Missile And Space Complex (PKMTR)
Object type
Payload
Rocket body
Debris
Shape & HBR
Unknown shape, 0.1 m
Radar Cross Section
Small (<0.1 m²)

Expand to show TLE details & history
Last TLE update: 13 hours ago

TLE from 13 hours ago
0 COSMOS 2251 DEB
1 34270U 93036LQ  26106.60017899  .00001739  00000-0  31711-3 0  9998
2 34270  74.0099  65.8436 0050183 189.3850 170.6387 14.66029147909257
Epoch: 2026-04-16T14:24Z
TLE epoch observation values (Epoch: 2026-04-16T14:24:15.464Z)
Latitude
-0.00002°
Longitude
5.03376°
Altitude
711.347 km
Speed
7.482 km/s
True Right ascension
04h 23m 22s
True Declination
0° 00' 00"
Sunlit
Object was in daylight at epoch
Visualization orbit readout
Latitude
Unknown
Longitude
Unknown
Altitude
Unknown
Speed
Unknown
Apparent Right ascension
Unknown
Apparent Declination
Unknown
Sunlit
N/A
Visualization observer readout
Local Sidereal Time
09:40:56
Azimuth
Unknown
Elevation
Unknown
Doppler factor
Unknown
Orbital elements
Apogee altitude
706.743 km
Perigee altitude
635.99 km
Semi-major axis
7,049.503 km
Eccentricity
0.00502
Inclination
74.0099°
RAAN
65.8436°
Arg. of periapsis
189.385°
True anomaly
170.73166°
Mean anomaly
170.6387°
Eccentric anomaly
170.68524°
Mean motion
3.66695 °/min
Orbital period
98.17 mins
BSTAR
0.00031711
Loading maneuver chart data...
Computing Atmospheric mass density...

Documentation

Showing up to 5 results
|